General Aviation Weather

Text Reports

Enter one or more of the following location identifiers separated by a space:

Zip Code, Four-Character ICAO or Three-Character IATA airport codes.

METAR - Aviation Routine Weather Report
ETHC - Celle,
Updated at 2:20 AM GMT on August 31, 2015 (4:20 AM CEST):
METAR ETHC 310220Z 32002KT 9000 SCT050 BKN200 19/19 Q1015 BLU+
TAF - Terminal Area Forecast
ETHC - Celle,
Updated at 2:20 AM GMT on August 31, 2015 (4:20 AM CEST):
No TAF is currently available for this location.
Decoded:
No decoded TAF is available.
PIREP - Pilot Weather Report
ETHC - Celle,
Updated at 2:20 AM GMT on August 31, 2015 (4:20 AM CEST):
No PIREP is currently available for this location.
AIRMET - Airmens Meteorological Information
ETHC - Celle,
Updated at 2:20 AM GMT on August 31, 2015 (4:20 AM CEST):
No AIRMET is currently available for this location.
SIGMET - Significant Meteorological Information
ETHC - Celle,
Updated at 2:20 AM GMT on August 31, 2015 (4:20 AM CEST):
No SIGMET is currently available for this location.
NOTAM - Notice to Airmen
ETHC - Celle,
Updated at 2:20 AM GMT on August 31, 2015 (4:20 AM CEST):
No NOTAM is currently available for this location.
Forecast Area
ETHC - Celle,
Updated at 2:20 AM GMT on August 31, 2015 (4:20 AM CEST):
No NOTAM is currently available for this location.
Aviation Weather Maps